Location: Newark
(46.1333°N, 13.0333°E)
Time: 09:29:06
(UTC+00:00)

Envisat - Visible Passes

Search period start: 22 November 2019 00:00
Search period end: 02 December 2019 00:00
Orbit: 764 x 766 km, 98.1° (Epoch: 22 November)

Date Brightness Start Highest point End Pass type
(mag) Time Alt. Az. Time Alt. Az. Time Alt. Az.
22 Nov 3.0 17:06:12 10° SSE 17:11:17 83° WSW 17:16:24 10° NNW visible
22 Nov 6.2 18:49:51 10° W 18:51:05 11° W 18:52:20 10° WNW visible
23 Nov 5.3 05:12:55 10° NE 05:17:18 28° E 05:21:39 10° SSE visible
23 Nov 3.2 16:29:44 10° SE 16:34:35 48° ENE 16:39:28 10° N visible
23 Nov 5.3 18:09:49 10° SW 18:13:51 24° W 18:17:55 10° NW visible
24 Nov 6.1 04:37:39 10° ENE 04:40:08 13° E 04:42:36 10° ESE visible
24 Nov 3.9 17:31:55 10° S 17:36:50 49° W 17:41:46 10° NNW visible
25 Nov 4.2 05:38:02 10° NNE 05:42:57 48° E 05:47:51 10° S visible
25 Nov 2.9 16:54:56 10° SSE 17:00:00 80° ENE 17:05:07 10° NNW visible
25 Nov 6.0 18:37:05 10° WSW 18:39:39 14° W 18:42:15 10° WNW visible
26 Nov 5.6 05:01:55 10° NE 05:05:56 23° E 05:09:55 10° SE visible
26 Nov 3.4 16:18:42 10° SE 16:23:23 39° ENE 16:28:05 10° N visible
26 Nov 4.9 17:58:06 10° SSW 18:02:29 29° W 18:06:54 10° NW visible
27 Nov 6.4 04:27:44 10° ENE 04:28:41 10° E 04:29:38 10° E visible
27 Nov 3.5 17:20:30 10° S 17:25:31 61° W 17:30:35 10° NNW visible
28 Nov 4.7 05:26:53 10° NNE 05:31:38 38° E 05:36:20 10° SSE visible
28 Nov 2.9 16:43:44 10° SSE 16:48:45 65° ENE 16:53:48 10° N visible
28 Nov 5.7 18:24:54 10° SW 18:28:14 17° W 18:31:36 10° NW visible
29 Nov 5.9 04:51:01 10° NE 04:54:32 19° E 04:58:02 10° SE visible
29 Nov 3.7 16:07:43 10° SE 16:12:11 32° ENE 16:16:39 10° N visible
29 Nov 4.5 17:46:29 10° SSW 17:51:08 36° W 17:55:49 10° NNW visible
30 Nov 3.6 05:52:09 10° NNE 05:57:14 65° ESE 06:02:16 10° S visible
30 Nov 3.1 17:09:09 10° S 17:14:13 77° WSW 17:19:20 10° NNW visible
01 Dec 5.1 05:15:47 10° NNE 05:20:17 31° E 05:24:45 10° SSE visible
01 Dec 3.1 16:32:36 10° SE 16:37:30 52° ENE 16:42:27 10° N visible
01 Dec 5.4 18:12:58 10° SW 18:16:50 22° W 18:20:44 10° NW visible
